Hourly Data Report for July 04, 2022

BANCROFT AUTO
ONTARIO
Current Station Operator: ECCC - MSC

45°04'17.000" N
77°52'44.000" W
330.70 m
616I001
71294
WRK

Download Data

Hourly Data (July 2022)
Hourly Data Report for July 4, 2022
TIME
LST
Temp Definition
°C
Dew Point Definition
°C
Rel Hum Definition
%
Precip. Amount Definition
mm

Wind Dir Definition
10's deg

Wind Spd Definition
km/h
Visibility Definition
km
Stn Press Definition
kPa
Hmdx Definition


Wind Chill Definition


Weather Definition


00:00 10.1 8.6 91 0.0   0   98.18     LegendNANA
01:00 8.0 7.1 94 0.0   0   98.15     LegendNANA
02:00 7.6 7.1 97 0.0   0   98.14     LegendNANA
03:00 6.8 6.5 98 0.0   0   98.17     LegendNANA
04:00 6.6 6.3 98 0.0   0   98.19     LegendNANA
05:00 7.3 7.1 99 0.0   0   98.22     LegendNANA
06:00 10.5 9.5 93 0.0   0   98.24     LegendNANA
07:00 12.5 11.2 92 0.0 0 1   98.27     LegendNANA
08:00 15.4 10.9 74 0.0 2 2   98.27     LegendNANA
09:00 18.1 10.0 59 0.0 31 5   98.22     LegendNANA
10:00 20.5 10.8 54 0.0 31 11   98.23     LegendNANA
11:00 22.5 9.3 43 0.0 28 6   98.20     LegendNANA
12:00 23.0 6.9 36 0.0 30 11   98.17     LegendNANA
13:00 24.2 8.5 37 0.0 27 10   98.14 25   LegendNANA
14:00 24.5 10.9 42 0.0 23 7   98.14 26   LegendNANA
15:00 24.2 11.2 44 0.0 25 6   98.10 26   LegendNANA
16:00 24.3 10.4 41 0.0 31 11   98.04 26   LegendNANA
17:00 23.9 10.5 43 0.0 25 6   98.04 25   LegendNANA
18:00 22.8 10.7 46 0.0 27 3   98.02     LegendNANA
19:00 20.9 13.6 63 0.0 23 1   97.99     LegendNANA
20:00 19.4 12.6 65 0.0 22 3   97.99     LegendNANA
21:00 18.6 12.4 67 0.0 22 3   98.01     LegendNANA
22:00 17.2 13.7 80 0.0   0   98.01     LegendNANA
23:00 16.1 13.9 87 0.0   0   97.97     LegendNANA

Notes on Data Quality.

Legend

  • E = Estimated
  • M = Missing
  • NA = Not Available*
  • [empty] = Indicates an unobserved value
Date modified: